Olathe, KS

4:02 PM CDT on September 20, 2017 (GMT -0500)
Johnson County Executive

Weather History for KOJC - May, 2013

Change the Weather History Date:

Saturday, May 11, 2013

  Actual Average Record
Temperature  
Mean Temperature 57 °F 63 °F  
Max Temperature 66 °F 73 °F 91 °F (1962)
Min Temperature 47 °F 53 °F 35 °F (1981)
Degree Days  
Heating Degree Days 8 4  
Month to date heating degree days 123 52  
Since 1 July heating degree days 5053 4883  
Cooling Degree Days 0 2  
Month to date cooling degree days 1 14  
Year to date cooling degree days 12 32  
Growing Degree Days 7 (Base 50)    
Moisture  
Dew Point 34 °F    
Average Humidity 58    
Maximum Humidity 93    
Minimum Humidity 22    
Precipitation  
Precipitation 0.00 in 0.18 in 0.90 in (2002)
Month to date precipitation 1.34 2.03  
Year to date precipitation 10.63 11.34  
Sea Level Pressure  
Sea Level Pressure 30.14 in    
Wind  
Wind Speed 11 mph (NNW)    
Max Wind Speed 28 mph    
Max Gust Speed 36 mph    
Visibility 10 miles    
Events      
T = Trace of Precipitation, MM = Missing Value Source: NWS Daily Summary

Daily Weather History Graph

Daily Weather History Graph

Search for Another Location

Airport or City:

Trip Planner

Search our weather history database for the weather conditions in past years. The results will help you decide how hot, cold, wet, or windy it might be!

Date:

Astronomy

May. 11, 2013 Rise Set
Actual Time 6:10 AM CDT 8:21 PM CDT
Civil Twilight 5:40 AM CDT 8:50 PM CDT
Nautical Twilight 5:04 AM CDT 9:27 PM CDT
Astronomical Twilight 4:24 AM CDT 10:07 PM CDT
Moon 7:18 AM CDT (5/11) 10:01 PM CDT (5/11)
Length of Visible Light 15h 10m
Length of Day
14h 11m
Waxing Crescent, 3% of the Moon is Illuminated
May 11
Waxing Crescent
May 17
First Quarter
May 24
Full
May 31
Last Quarter
Jun 8
New

Hourly Weather History & Observations

Time (CDT) Temp. Dew Point Humidity Pressure Visibility Wind Dir Wind Speed Gust Speed Precip Events Conditions
12:53 AM 54.0 °F 46.0 °F 75% 30.05 in 10.0 mi Calm Calm - N/A   Clear
1:53 AM 48.9 °F 46.0 °F 90% 30.06 in 8.0 mi Calm Calm - N/A   Clear
2:53 AM 48.9 °F 45.0 °F 86% 30.05 in 10.0 mi West 3.5 mph - N/A   Clear
3:53 AM 52.0 °F 45.0 °F 77% 30.05 in 10.0 mi WNW 3.5 mph - N/A   Clear
4:53 AM 51.1 °F 45.0 °F 80% 30.04 in 10.0 mi WNW 5.8 mph - N/A   Clear
5:53 AM 52.0 °F 45.0 °F 77% 30.05 in 10.0 mi WNW 6.9 mph - N/A   Clear
6:53 AM 52.0 °F 45.0 °F 77% 30.06 in 10.0 mi NW 6.9 mph - N/A   Clear
7:53 AM 55.9 °F 46.9 °F 72% 30.08 in 10.0 mi NW 12.7 mph 18.4 mph N/A   Clear
8:53 AM 57.9 °F 43.0 °F 58% 30.12 in 10.0 mi North 19.6 mph 26.5 mph N/A   Clear
9:53 AM 60.1 °F 36.0 °F 41% 30.14 in 10.0 mi North 20.7 mph 31.1 mph N/A   Clear
10:53 AM 61.0 °F 28.9 °F 30% 30.17 in 10.0 mi North 19.6 mph 27.6 mph N/A   Clear
11:53 AM 62.1 °F 28.9 °F 29% 30.18 in 10.0 mi North 17.3 mph 27.6 mph N/A   Clear
12:53 PM 64.0 °F 30.0 °F 28% 30.18 in 10.0 mi North 17.3 mph 24.2 mph N/A   Clear
1:53 PM 64.9 °F 30.9 °F 28% 30.18 in 10.0 mi North 15.0 mph 23.0 mph N/A   Clear
2:53 PM 64.9 °F 27.0 °F 24% 30.19 in 10.0 mi North 17.3 mph 24.2 mph N/A   Clear
3:53 PM 66.0 °F 26.1 °F 22% 30.18 in 10.0 mi NNW 18.4 mph 31.1 mph N/A   Clear
4:53 PM 64.9 °F 26.1 °F 23% 30.17 in 10.0 mi North 12.7 mph 29.9 mph N/A   Clear
5:53 PM 64.9 °F 25.0 °F 22% 30.17 in 10.0 mi North 16.1 mph 26.5 mph N/A   Clear
6:53 PM 63.0 °F 25.0 °F 24% 30.17 in 10.0 mi NNW 13.8 mph 20.7 mph N/A   Clear
7:53 PM 61.0 °F 21.9 °F 22% 30.18 in 10.0 mi North 13.8 mph - N/A   Clear
9:53 PM 52.0 °F 28.0 °F 40% 30.23 in 10.0 mi NNW 5.8 mph - N/A   Clear
10:53 PM 52.0 °F 26.1 °F 37% 30.24 in 10.0 mi North 5.8 mph - N/A   Clear
11:53 PM 50.0 °F 26.1 °F 39% 30.24 in 10.0 mi North 4.6 mph - N/A   Clear